Orlando International, FL

8:22 PM EDT on August 23, 2017 (GMT -0400)
Orlando International

Weather History for KMCO - July, 2014

Change the Weather History Date:

Saturday, July 12, 2014

  Actual Average Record
Temperature  
Mean Temperature 84 °F 83 °F  
Max Temperature 92 °F 92 °F 99 °F (1892)
Min Temperature 75 °F 74 °F 65 °F (1938)
Degree Days  
Heating Degree Days 0 0  
Month to date heating degree days 0 0  
Since 1 June heating degree days 0 0  
Since 1 July heating degree days 0 0  
Cooling Degree Days 19 18  
Month to date cooling degree days 214 208  
Year to date cooling degree days 1651 1499  
Since 1 June cooling degree days 717 698  
Growing Degree Days 33 (Base 50)    
Moisture  
Dew Point 73 °F    
Average Humidity 76    
Maximum Humidity 100    
Minimum Humidity 52    
Precipitation  
Precipitation 0.09 in 0.23 in 1.64 in (1990)
Month to date precipitation 5.82 2.80  
Year to date precipitation 27.81 25.01  
Sea Level Pressure  
Sea Level Pressure 30.13 in    
Wind  
Wind Speed 5 mph (NE)    
Max Wind Speed 22 mph    
Max Gust Speed 30 mph    
Visibility 10 miles    
Events Rain , Thunderstorm    
T = Trace of Precipitation, MM = Missing Value Source: NWS Daily Summary

Daily Weather History Graph

Daily Weather History Graph

Search for Another Location

Airport or City:

Trip Planner

Search our weather history database for the weather conditions in past years. The results will help you decide how hot, cold, wet, or windy it might be!

Date:

Astronomy

Jul. 12, 2014 Rise Set
Actual Time 6:36 AM EDT 8:25 PM EDT
Civil Twilight 6:09 AM EDT 8:51 PM EDT
Nautical Twilight 5:37 AM EDT 9:23 PM EDT
Astronomical Twilight 5:04 AM EDT 9:57 PM EDT
Moon 8:35 PM EDT (7/12) 6:47 AM EDT (7/12)
Length of Visible Light 14h 41m
Length of Day
13h 49m
Full, 100% of the Moon is Illuminated
Jul 12
Full
Jul 18
Last Quarter
Jul 26
New
Aug 3
First Quarter
Aug 10
Full

Hourly Weather History & Observations

Time (EDT) Temp. Heat Index Dew Point Humidity Pressure Visibility Wind Dir Wind Speed Gust Speed Precip Events Conditions
12:53 AM 78.1 °F - 73.0 °F 84% 30.16 in 10.0 mi NE 3.5 mph - N/A   Overcast
1:53 AM 77.0 °F - 72.0 °F 84% 30.14 in 10.0 mi NE 5.8 mph - N/A   Overcast
2:53 AM 75.9 °F - 73.0 °F 91% 30.14 in 10.0 mi East 4.6 mph - N/A   Overcast
3:53 AM 75.9 °F - 73.0 °F 91% 30.12 in 10.0 mi East 3.5 mph - N/A   Overcast
4:53 AM 75.9 °F - 73.0 °F 91% 30.12 in 10.0 mi NNW 4.6 mph - N/A   Mostly Cloudy
5:53 AM 75.9 °F - 73.0 °F 91% 30.12 in 10.0 mi ENE 3.5 mph - N/A   Scattered Clouds
6:53 AM 75.9 °F - 73.0 °F 91% 30.12 in 10.0 mi North 5.8 mph - N/A   Partly Cloudy
7:53 AM 78.1 °F - 73.9 °F 87% 30.12 in 10.0 mi ENE 3.5 mph - N/A   Scattered Clouds
8:53 AM 80.1 °F 85.1 °F 75.0 °F 85% 30.14 in 10.0 mi Variable 3.5 mph - N/A   Mostly Cloudy
9:53 AM 84.9 °F 92.1 °F 73.9 °F 69% 30.15 in 10.0 mi Variable 4.6 mph - N/A   Mostly Cloudy
10:53 AM 86.0 °F 93.0 °F 73.0 °F 65% 30.16 in 10.0 mi Variable 3.5 mph - N/A   Mostly Cloudy
11:53 AM 87.1 °F 93.6 °F 72.0 °F 61% 30.14 in 10.0 mi Calm Calm - N/A   Mostly Cloudy
1:53 PM 91.9 °F 98.4 °F 71.1 °F 50% 30.12 in 10.0 mi Variable 3.5 mph - N/A   Mostly Cloudy
2:51 PM 91.4 °F 96.8 °F 69.8 °F 49% 30.10 in 10.0 mi ESE 8.1 mph - N/A Thunderstorm Thunderstorm
2:53 PM 91.0 °F 95.6 °F 69.1 °F 48% 30.09 in 10.0 mi East 5.8 mph - N/A Thunderstorm Thunderstorm
3:53 PM 81.0 °F 85.2 °F 72.0 °F 74% 30.12 in 10.0 mi East 18.4 mph 25.3 mph N/A Thunderstorm Thunderstorm
4:39 PM 79.0 °F - 68.0 °F 69% 30.12 in 10.0 mi ENE 11.5 mph - 0.00 in Rain Light Rain
4:53 PM 78.1 °F - 70.0 °F 76% 30.12 in 10.0 mi East 10.4 mph - 0.00 in Rain Light Rain
5:53 PM 78.1 °F - 75.0 °F 90% 30.13 in 10.0 mi North 8.1 mph - 0.04 in Rain Light Rain
6:44 PM 78.1 °F - 75.0 °F 90% 30.15 in 10.0 mi West 3.5 mph - 0.01 in Rain Light Rain
6:53 PM 78.1 °F - 75.9 °F 93% 30.14 in 10.0 mi Calm Calm - 0.01 in Rain Light Rain
7:31 PM 77.0 °F - 75.0 °F 94% 30.14 in 10.0 mi North 4.6 mph - 0.04 in Rain Light Rain
7:53 PM 78.1 °F - 75.0 °F 90% 30.12 in 10.0 mi ENE 8.1 mph - 0.04 in   Mostly Cloudy
8:53 PM 77.0 °F - 75.9 °F 96% 30.12 in 10.0 mi ENE 6.9 mph - N/A   Mostly Cloudy
9:53 PM 77.0 °F - 75.0 °F 94% 30.12 in 10.0 mi North 5.8 mph - N/A   Overcast
10:53 PM 75.9 °F - 75.0 °F 97% 30.11 in 10.0 mi North 6.9 mph - N/A   Overcast
11:53 PM 75.9 °F - 72.0 °F 87% 30.12 in 10.0 mi NE 4.6 mph - N/A   Overcast